User: anonymous   Login
Location: Newark
(48.8604°N, 2.3376°E)
Time: 12:16:32
(UTC+00:00)
Language:

UWE-3 - Orbit

View from above orbital plane
View from above orbital plane
View from above satellite
View from above satellite

Ground track
Ground track

The orbit data is extracted from the following two-line orbital elements,

1 39446U 13066AG  21339.87806473  .00000680  00000-0  95411-4 0  9991
2 39446  97.6599 307.7257 0069586   1.6815 358.4618 14.78959670431840
Epoch (UTC): 05 December 2021 21:04:24
Eccentricity: 0.0069586
inclination: 97.6599°
perigee height: 584 km
apogee height: 681 km
right ascension of ascending node: 307.7257°
argument of perigee: 1.6815°
revolutions per day: 14.78959670
mean anomaly at epoch: 358.4618°
orbit number at epoch: 43184

The dashed part of the orbit path shows where the satellite is in the earth's shadow,  

DLR